Showing default

OV2-5, 3428

Orbit data source: Space-Track

OV2-5, 3428 is a payload satellite owned by SAMSO (US) that was launched on Thu, 26 Sep 1968 UTC via a TITAN IIIC launch vehicle from the Air Force Eastern Test Range (AFETR). Payloads include a variety of satellites, spacecraft, and rockets equipped with specific instruments for various scientific and technological missions. These include communications satellites like Starlink; space stations such as the ISS; scientific satellites like the Hubble; Earth observation satellites from companies like Planet Labs, Umbra, and HawkEye 360; GPS; miniature CubeSats for education and research; and military/defense satellites.

Loading next visibility...
OV2-5 details
Identifier
3428, 1968-081A
Orbit
Active
Last TLE update14 hours ago
Origin
Flag of USSAMSO (US)
ManufacturerNorthrop
MissionNon-operational Civil Science
Bus & MotorOV2, Unknown motor
Mass~200 kg wet, ~200 kg dry
Launch date (UTC)
1968-09-26 (56 years ago)
Launch vehicle
TITAN IIIC
Launch site
Air Force Eastern Test Range (AFETR)
Object type
Payload
Rocket body
Debris
Shape & HBRBox + 4 Pan, 2.5 m
Radar Cross Section1.167 m², Medium (>0.1 m² and < 1m²)

Expand to show TLE details & history

TLE from 14 hours ago
0 OV2-5
1 03428U 68081A   24325.69184463  .00000055  00000-0  00000-0 0  9997
2 03428   1.0960  14.8335 0080827 307.3946 184.5082  1.01557163115235
Epoch: 2024-11-20T16:36Z
Definitive object data (Epoch: 2024-11-20T16:36:15.376Z)
Latitude0.81099°
Longitude-162.59392°
Altitude35,764.937 km
Speed3.063 km/s
True Right ascension09h 46m 37s
True Declination0° 48' 37"
Sunlit
Object was in daylight at TLE epoch
Visualization TLE readout
Latitude-0.32471°
Longitude47.59744°
Altitude35,151.813 km
Speed3.108 km/s
Apparent Right ascension23h 23m 54s
Apparent Declination-6° 19' 17"
Sunlit
Object is in daylight
Visualization observer readout
Local Sidereal Time03:24:18
Azimuth244.968° WSW
Elevation18.021°
Doppler factor1
Orbital elements
Apogee altitude35,769.073 km
Perigee altitude35,093.21 km
Semi-major axis41,809.278 km
Eccentricity0.0080827
Inclination1.096°
RAAN14.8335°
Arg. of periapsis307.3946°
True anomaly184.43612°
Mean anomaly184.5082°
Eccentric anomaly184.47209°
Mean motion0.25388 °/min
BSTARUnknown
Orbital period1417.97 mins
Loading maneuver chart data...

OV2-5 Visibility forecast

Observer location: undefined°, undefined

Span
Click to sort rows by Start time (UTC) header in descending order
Start Az.
Max El. time (UTC)
Max El. Az.
Max El.
End time (UTC)
End Az.
1440 mins2024-11-21 06:21:46.807Z244.953° WSW2024-11-22 06:21:46.807Z241.146° WSW20.12°2024-11-22 06:21:46.807Z241.146° WSW
|